Location: Old Providence
(33.0965°N, 85.9222°W)
Time: 14:49:41
(UTC+00:00)

Daily predictions for brighter satellites

Satellite Brightness Start Highest point End
(mag) Time Altitude Azimuth Time Altitude Azimuth Time Altitude Azimuth
NOAA 6 4.1 22:55:32 10° SSE 23:00:42 88° WSW 23:05:52 10° NNW
X-37B 2.4 22:59:03 10° S 23:01:28 20° SE 23:03:53 10° E
Cosmos 1867 3.6 22:56:28 10° SSW 23:01:52 81° ESE 23:07:20 10° NNE
CSL-04 DEB 4.5 22:58:29 10° NNE 23:02:39 85° ESE 23:06:52 10° SSW
Cosmos 1606 2.8 23:01:47 10° S 23:05:35 60° E 23:09:26 10° NNE
ADEOS Rocket 4.5 22:58:29 10° N 23:05:57 53° WNW 23:13:21 10° SW
ATLAS 3B CENTAUR R/B 1.8 23:04:45 10° SW 23:06:09 18° S 23:07:41 10° ESE
Cosmos 1933 4.1 23:04:43 10° SSE 23:08:19 32° E 23:11:56 10° NNE
Cosmos 2154 Rocket 4.1 23:03:44 10° N 23:10:06 85° E 23:16:27 10° S
Cosmos 2298 Rocket 4.1 23:04:49 10° NNW 23:10:09 89° ENE 23:15:27 10° SSE
Cosmos 2150 Rocket 3.9 23:05:49 10° NNW 23:10:58 83° ENE 23:16:06 10° SSE
SMAP 3.0 23:06:42 10° SSE 23:11:18 69° ENE 23:15:56 10° N
Cosmos 1818 3.6 23:09:41 10° NNW 23:15:04 58° ENE 23:20:25 10° SE
CRYOSAT 2 4.4 23:10:42 10° N 23:15:37 88° W 23:20:31 10° S
Cosmos 1943 Rocket 3.8 23:16:09 10° NE 23:18:00 12° NE 23:19:12 11° ENE
Cosmos 2341 Rocket 4.2 23:14:50 10° N 23:20:57 52° E 23:27:06 10° SSE
USA 215 3.6 23:14:31 10° NE 23:20:59 66° NW 23:27:27 10° SW
H-2A R/B 3.6 23:17:05 10° S 23:21:20 50° W 23:25:30 10° NNW
Cosmos 1125 Rocket 3.4 23:16:51 10° NNW 23:22:03 71° ENE 23:27:14 10° SSE
Cosmos 1782 4.1 23:19:24 10° SE 23:22:21 21° E 23:25:18 10° NE
SL-16 R/B 2.2 23:18:08 10° S 23:23:45 70° ESE 23:29:23 10° NNE
Meteor 1-4 Rocket 3.9 23:21:24 10° SE 23:24:12 21° E 23:26:26 13° NE
SAR-Lupe-1 4.5 23:26:44 10° NNE 23:30:09 40° E 23:33:32 10° S
ERS-2 2.1 23:29:47 10° NNE 23:33:27 85° WNW 23:37:06 10° SSW
Cosmos 1689 Rocket 2.8 23:32:45 17° NE 23:34:32 32° E 23:37:11 10° SSE
PSLV R/B 4.4 23:32:36 10° NNE 23:36:23 38° E 23:40:09 10° SSE
SL-24 R/B 4.0 23:33:38 10° NNE 23:37:21 45° E 23:40:52 10° S
Meteor 1-26 Rocket 4.5 23:32:17 10° SSE 23:38:03 53° E 23:43:55 10° NNE
Meteor 2-12 Rocket 4.4 23:33:29 10° N 23:39:40 86° E 23:45:46 10° S
IRS-1C Rocket 4.5 23:35:03 10° SE 23:39:56 40° ENE 23:44:51 10° N
SL-8 Rocket 4.0 23:34:26 10° N 23:40:34 57° E 23:46:43 10° SSE
Cosmos 1515 Rocket 4.3 23:37:06 10° SSE 23:40:54 31° E 23:43:50 15° NE
CZ-2D R/B 3.9 23:39:03 10° SE 23:42:23 30° ENE 23:45:46 10° NNE
Lacrosse 5 rocket 2.0 23:39:01 10° WSW 23:42:34 43° NW 23:45:31 13° NNE
Cosmos 2181 Rocket 4.0 23:36:28 10° S 23:42:54 81° E 23:49:20 10° N
COSMO-SKYMED 1 2.5 23:41:57 10° NNE 23:46:18 81° ESE 23:50:38 10° S
Okean-O 3.5 23:43:20 10° SE 23:47:01 27° ENE 23:50:43 10° NNE
USA 267 4.4 23:47:07 19° ENE 23:49:40 24° NNE 23:54:38 10° NNW
Sich 1 3.5 23:46:28 10° NNW 23:50:47 62° W 23:55:02 10° S
SL-24 R/B - RUBIN 2 4.5 23:48:21 10° NNW 23:54:19 69° WSW 23:59:30 10° SSE
GENESIS II 4.3 23:51:52 10° NNW 23:55:48 77° WSW 23:59:36 10° SSE
Okean O Rocket 3.1 23:51:52 10° SSW 23:55:54 38° W 23:59:58 10° NNW
